Stations météo

réclame
Mon MeteoGroup
Ostersund/Froson, Suède (2226): Température de l'air & dewpoint: 10.08.2018 03:00:00 - 16.08.2018 03:00:00 (CEST)Ostersund/Froson, Suède (2226): Vitesse du vent: 10.08.2018 03:00:00 - 16.08.2018 03:00:00 (CEST)Ostersund/Froson, Suède (2226): Direction du vent: 10.08.2018 03:00:00 - 16.08.2018 03:00:00 (CEST)Ostersund/Froson, Suède (2226): reduced air pressure: 10.08.2018 03:00:00 - 16.08.2018 03:00:00 (CEST)Ostersund/Froson, Suède (2226): visibility: 10.08.2018 03:00:00 - 16.08.2018 03:00:00 (CEST)
Date & Time tt [°C] td [°C] ff [km/h] ff [knt] dd ppp [hPa] vv [km]
16.08.2018 03:00:00 14,3 9,3 18 10 SSE 1008,3 10
16.08.2018 02:00:00 14,7 9,1 21 11 S 1008,6 10
16.08.2018 01:00:00 15,4 9,1 16 9 S 1008,7 10
16.08.2018 00:00:00 15,8 8,8 21 11 SSE 1008,4 10
15.08.2018 23:00:00 16,6 8,8 13 7 S 1008,7 10
15.08.2018 22:00:00 17,1 8,5 15 8 S 1008,3 10
15.08.2018 21:00:00 17,5 8,4 8 4 SSE 1008,1 10
15.08.2018 20:00:00 17,9 9,0 9 5 SSW 1008,1 10
15.08.2018 19:00:00 18,8 7,9 13 7 SSE 1007,6 10
15.08.2018 18:00:00 19,4 7,8 21 11 S 1007,5 10
15.08.2018 17:00:00 20,0 7,0 16 9 SSE 1007,2 10
15.08.2018 16:00:00 19,8 6,5 18 10 S 1007,4 10
15.08.2018 15:00:00 20,4 6,0 18 10 S 1007,2 10
15.08.2018 14:00:00 19,8 7,2 18 10 SSE 1007,4 10
15.08.2018 13:00:00 18,7 6,8 16 9 S 1007,5 10
15.08.2018 12:00:00 18,2 8,5 16 9 S 1007,6 10
15.08.2018 11:00:00 16,6 9,5 15 8 SSE 1008,0 10
15.08.2018 10:00:00 15,0 8,7 9 5 SE 1008,1 10
15.08.2018 09:00:00 13,2 10,2 8 4 SSE 1008,7 10
15.08.2018 08:00:00 12,0 10,6 9 5 SSE 1008,6 10
15.08.2018 07:00:00 11,6 9,8 8 4 ESE 1008,6 10
15.08.2018 06:00:00 11,7 9,8 5 3 SSE 1008,4 10
15.08.2018 05:00:00 11,1 10,0 4 2 - 1008,5 10
15.08.2018 04:00:00 11,4 10,1 5 3 ESE 1008,5 10
15.08.2018 03:00:00 12,4 9,6 9 5 SSE 1008,4 10
15.08.2018 02:00:00 12,6 9,6 9 5 SSE 1008,2 10
15.08.2018 01:00:00 12,0 10,4 11 6 ESE 1008,4 10
15.08.2018 00:00:00 12,2 9,8 13 7 SE 1008,2 10
14.08.2018 23:00:00 12,9 9,5 9 5 ESE 1008,2 10
14.08.2018 22:00:00 13,1 9,2 9 5 E 1008,0 10
14.08.2018 21:00:00 13,7 9,5 11 6 E 1007,9 10
14.08.2018 20:00:00 13,9 9,3 16 9 ESE 1007,8 10
14.08.2018 19:00:00 15,8 8,5 18 10 SE 1007,3 10
14.08.2018 18:00:00 16,4 7,6 13 7 ESE 1007,5 10
14.08.2018 17:00:00 16,5 7,2 13 7 E 1007,4 10
14.08.2018 16:00:00 16,4 7,9 13 7 ESE 1007,8 10
14.08.2018 15:00:00 16,0 7,0 9 5 ESE 1008,3 10
14.08.2018 14:00:00 15,0 7,0 9 5 ESE 1008,7 10
14.08.2018 13:00:00 13,8 6,2 11 6 ESE 1009,2 10
14.08.2018 12:00:00 12,1 5,9 8 4 ENE 1009,7 10
14.08.2018 11:00:00 11,5 5,6 5 3 - 1010,3 10
14.08.2018 10:00:00 10,2 4,8 4 2 - 1010,8 10
14.08.2018 09:00:00 9,6 5,0 5 3 NE 1011,1 10
14.08.2018 08:00:00 9,7 5,7 8 4 ENE 1010,8 10
14.08.2018 07:00:00 8,7 5,1 5 3 NNE 1011,0 10
14.08.2018 06:00:00 9,0 4,0 9 5 NNW 1011,0 10
14.08.2018 05:00:00 8,9 3,9 8 4 NW 1011,2 10
14.08.2018 04:00:00 9,1 3,9 5 3 NNW 1011,2 10
14.08.2018 03:00:00 9,3 4,1 11 6 NW 1011,1 10
14.08.2018 02:00:00 9,3 4,3 11 6 NW 1010,9 10
14.08.2018 01:00:00 8,3 5,1 13 7 NW 1011,0 10
14.08.2018 00:00:00 8,4 3,8 9 5 NW 1010,9 10
13.08.2018 23:00:00 9,4 4,6 11 6 NNW 1010,5 10
13.08.2018 22:00:00 10,5 5,3 16 9 NW 1010,4 10
13.08.2018 21:00:00 10,6 6,2 15 8 NNW 1010,2 10
13.08.2018 20:00:00 11,4 5,9 18 10 NNW 1009,7 10
13.08.2018 19:00:00 12,2 6,0 15 8 NW 1009,4 10
13.08.2018 18:00:00 12,2 5,4 21 11 NW 1009,5 10
13.08.2018 17:00:00 12,4 6,0 29 16 WNW 1009,6 10
13.08.2018 16:00:00 12,7 7,2 26 14 NW 1009,2 10
13.08.2018 15:00:00 12,7 5,6 29 16 NW 1008,9 10
13.08.2018 14:00:00 13,4 6,0 35 19 NW 1008,6 10
13.08.2018 13:00:00 13,2 6,3 34 18 NW 1008,3 10
13.08.2018 12:00:00 12,0 5,4 31 17 NW 1008,4 10
13.08.2018 11:00:00 11,6 5,9 31 17 NW 1008,2 10
13.08.2018 10:00:00 11,2 5,7 26 14 WNW 1007,9 10
13.08.2018 09:00:00 10,9 6,1 22 12 NW 1007,5 10
13.08.2018 08:00:00 10,5 6,4 26 14 NW 1007,2 10
13.08.2018 07:00:00 9,6 7,2 22 12 NW 1007,2 10
13.08.2018 06:00:00 9,9 7,3 24 13 NW 1006,9 10
13.08.2018 05:00:00 9,5 7,6 31 17 NW 1007,0 10
13.08.2018 04:00:00 9,9 7,1 35 19 WNW 1007,0 10
13.08.2018 03:00:00 10,0 7,1 31 17 WNW 1006,9 10
13.08.2018 02:00:00 10,0 6,7 29 16 WNW 1007,1 10
13.08.2018 01:00:00 9,9 6,4 31 17 NW 1007,3 10
13.08.2018 00:00:00 10,1 6,6 28 15 NW 1007,2 10
12.08.2018 23:00:00 10,5 6,4 29 16 NW 1007,0 10
12.08.2018 22:00:00 10,4 6,5 35 19 NW 1007,2 10
12.08.2018 21:00:00 10,6 6,5 31 17 NW 1007,2 10
12.08.2018 20:00:00 11,2 5,5 28 15 NW 1007,1 10
12.08.2018 19:00:00 12,5 5,9 24 13 NW 1006,8 10
12.08.2018 18:00:00 13,6 5,2 31 17 NW 1006,5 10
12.08.2018 17:00:00 13,8 6,9 34 18 WNW 1006,6 10
12.08.2018 16:00:00 13,4 6,3 29 16 WNW 1006,8 10
12.08.2018 15:00:00 12,7 6,7 24 13 NW 1007,4 10
12.08.2018 14:00:00 12,6 6,0 28 15 WNW 1007,7 10
12.08.2018 13:00:00 12,1 6,6 21 11 NW 1007,9 10
12.08.2018 12:00:00 11,8 5,9 16 9 NW 1008,1 10
12.08.2018 11:00:00 12,1 6,6 18 10 NNW 1008,1 10
12.08.2018 10:00:00 10,8 6,5 21 11 NW 1008,4 10
12.08.2018 09:00:00 10,8 6,9 24 13 NW 1008,6 10
12.08.2018 08:00:00 9,7 6,6 21 11 WNW 1009,0 10
12.08.2018 07:00:00 8,9 6,3 15 8 NW 1009,5 10
12.08.2018 06:00:00 8,2 6,0 15 8 WNW 1009,8 10
12.08.2018 05:00:00 8,2 6,0 18 10 WNW 1010,0 10
12.08.2018 04:00:00 8,5 6,0 18 10 NW 1010,4 10
12.08.2018 03:00:00 9,2 6,6 18 10 NW 1010,7 10
12.08.2018 02:00:00 9,2 6,5 16 9 NW 1011,0 10
12.08.2018 01:00:00 9,8 6,9 15 8 NW 1011,4 10
12.08.2018 00:00:00 10,2 6,7 13 7 NW 1011,4 10
11.08.2018 23:00:00 10,0 6,0 11 6 NW 1011,8 10
11.08.2018 22:00:00 10,4 5,6 9 5 NNW 1011,9 10
11.08.2018 21:00:00 11,2 5,7 8 4 N 1011,7 10
11.08.2018 20:00:00 12,8 5,0 16 9 NW 1011,4 10
11.08.2018 19:00:00 13,7 6,5 18 10 NW 1011,2 10
11.08.2018 18:00:00 14,0 6,4 26 14 WNW 1011,5 10
11.08.2018 17:00:00 14,0 7,1 24 13 WNW 1011,4 10
11.08.2018 16:00:00 13,3 6,4 28 15 WNW 1011,9 10
11.08.2018 15:00:00 13,9 6,0 24 13 W 1011,4 10
11.08.2018 14:00:00 14,6 7,4 29 16 WNW 1010,7 10
11.08.2018 13:00:00 13,6 6,2 28 15 W 1010,0 10
11.08.2018 12:00:00 13,4 6,5 31 17 W 1009,6 10
11.08.2018 11:00:00 13,2 6,5 37 20 WNW 1008,8 10
11.08.2018 10:00:00 12,7 5,8 41 22 W 1007,6 10
11.08.2018 09:00:00 12,1 5,7 34 18 W 1006,6 10
11.08.2018 08:00:00 11,7 6,4 41 22 W 1005,6 10
11.08.2018 07:00:00 11,7 6,8 44 24 W 1004,0 10
11.08.2018 06:00:00 12,1 8,0 39 21 W 1002,2 10
11.08.2018 05:00:00 12,6 9,1 31 17 W 1000,1 10
11.08.2018 04:00:00 11,2 9,1 24 13 SSW 998,5 10
11.08.2018 03:00:00 12,1 7,8 24 13 S 997,7 10
11.08.2018 02:00:00 12,7 7,2 29 16 S 997,6 10
11.08.2018 01:00:00 13,7 6,5 29 16 S 998,0 10
11.08.2018 00:00:00 14,9 7,0 26 14 S 997,9 10
10.08.2018 23:00:00 15,6 7,6 24 13 S 997,9 10
10.08.2018 22:00:00 16,5 9,7 26 14 S 998,1 10
10.08.2018 21:00:00 17,1 10,2 21 11 SSE 998,1 10
10.08.2018 20:00:00 18,0 10,6 29 16 S 998,0 10
10.08.2018 19:00:00 19,0 16,0 28 15 ESE 998,0 10
10.08.2018 18:00:00 18,5 16,8 16 9 ESE 998,6 10
10.08.2018 17:00:00 19,0 16,8 18 10 ESE 999,6 10
10.08.2018 16:00:00 17,3 16,7 18 10 ESE 1000,7 3,8
10.08.2018 15:00:00 16,4 15,8 22 12 SE 1001,9 6
10.08.2018 14:00:00 15,6 15,1 22 12 ESE 1002,4 4,4
10.08.2018 13:00:00 14,8 14,0 16 9 E 1003,4 10
10.08.2018 12:00:00 13,6 13,1 15 8 E 1004,7 10
10.08.2018 11:00:00 13,3 12,8 15 8 ENE 1006,5 10
10.08.2018 10:00:00 12,5 11,7 5 3 - 1008,6 10
10.08.2018 09:00:00 12,3 11,4 5 3 NE 1009,2 10
10.08.2018 08:00:00 12,2 11,1 8 4 NNE 1009,4 10
10.08.2018 07:00:00 12,3 10,7 5 3 WNW 1011,1 10
10.08.2018 06:00:00 12,1 10,3 9 5 NNW 1011,0 10
10.08.2018 05:00:00 11,8 10,4 5 3 N 1012,0 10
10.08.2018 04:00:00 11,8 10,0 5 3 N 1012,5 10
10.08.2018 03:00:00 12,1 9,8 9 5 WNW 1013,3 10

tt = Température de l'air
td = dewpoint
ff = Vitesse du vent
dd = Direction du vent
ppp = reduced air pressure
vv = visibility

stations d'obs. à proximité